Regional Weather Roundup
Issued by NWS Green Bay, WI

Home | Current Version | Previous Version | Text Only | Print | Product List | Glossary On
Versions: 1 2 3 4 5 6 7 8 9 10 11 12 13 14 15 16 17 18 19 20 21 22 23 24 25 26 27 28 29 30 31 32 33 34 35 36 37 38 39 40 41 42 43 44 45 46 47 48 49 50
000
ASUS43 KGRB 160710
RWRGRB

NORTH-CENTRAL AND NORTHEAST WISCONSIN REGIONAL WEATHER ROUNDUP
NATIONAL WEATHER SERVICE GREEN BAY WI
200 AM CDT WED APR 16 2014

WIZ005-009-010>012-018-019-160800-
NORTH CENTRAL WISCONSIN

CITY           SKY/WX    TMP DP  RH WIND       PRES   REMARKS
IRONWOOD       CLEAR     14   7  73 CALM      30.10S
MANITOWISH WTR CLEAR     10   6  84 CALM      30.11F
ARBOR VITAE    PTCLDY    14   0  53 CALM      30.12S
EAGLE RIVER    CLEAR      8   4  84 CALM      30.12F
LAND O LAKES   CLEAR      0  -3  85 CALM      30.13S
RHINELANDER    CLEAR     11   4  73 CALM      30.13R
PHILLIPS       CLOUDY    19  11  72 CALM      30.11S
ANTIGO         CLEAR     17  10  74 CALM      30.14S
TOMAHAWK       PTCLDY    13  10  87 CALM      30.12S
MERRILL        PTCLDY    16  13  89 CALM      30.13S
$$

WIZ013-073-160800-
NORTHEAST WISCONSIN

CITY           SKY/WX    TMP DP  RH WIND       PRES   REMARKS
IRON MOUNTAIN  PTCLDY    10   6  84 CALM      30.16S
MARINETTE      CLEAR     21  19  93 CALM      30.20S
OCONTO         CLEAR     18  16  90 CALM      30.20S
$$

WIZ017-030-035>037-045-160800-
CENTRAL WISCONSIN

CITY           SKY/WX    TMP DP  RH WIND       PRES   REMARKS
MEDFORD        MOCLDY    25  16  67 SE6       30.11S
WAUSAU         CLOUDY    22  16  78 E5        30.14R
MOSINEE        PTCLDY    21  18  86 SE5       30.16R
MARSHFIELD     MOCLDY    26  18  71 SE3       30.13S
WISC RAPIDS    CLOUDY    24  16  71 SE6       30.17S
STEVENS POINT  MOCLDY    17  14  88 CALM      30.16F
WAUPACA        PTCLDY    25  21  86 CALM      30.19S
SHAWANO        CLEAR     24  19  81 CALM      30.20R
CLINTONVILLE   PTCLDY    23  19  86 CALM      30.19R
$$

WIZ038-039-048-051-160800-
FOX VALLEY

CITY           SKY/WX    TMP DP  RH WIND       PRES   REMARKS
NWS GREEN BAY  CLEAR     27  22  81 S3        30.20S
APPLETON       CLEAR     27  19  74 CALM      30.20R
OSHKOSH        CLEAR     24  18  77 S5        30.19F
FOND DU LAC    CLEAR     26  19  74 SE6       30.20S
$$

WIZ022-050-052-160800-
EAST CENTRAL WISCONSIN

CITY           SKY/WX    TMP DP  RH WIND       PRES   REMARKS
STURGEON BAY   CLEAR     25  16  68 S5        30.20S
MANITOWOC      CLEAR     23  18  81 CALM      30.22S
SHEBOYGAN      CLEAR     25  22  88 SW3       30.22R
$$

LMZ563-521-522-541>543-160800-
LAKESHORE

STATION/POSITION TIME  TEMP    WIND        PRES    VSBY  WAVE
                       AIR SEA DIR/SP/G                  HT/PER
                 (UTC) (F)     (DEG/KT/KT) (MB)    (MI)  (FT/S)
SHEBOYGAN LKSHOR 0700   32     210/  9/ 10 1024.5R
KEWAUNEE LKSHORE 0700   27     240/  1/  2 1023.7R
NORTHPORT PIER   0700   28     120/  7/  8 1023.0S
SISTER BAY LKSHO 0700   24     110/  6/  8   N/A
MENOMINEE LKSHOR 0700   21     320/  3/  3 1023.4S
$$



USA.gov is the U.S. government's official web portal to all federal, state and local government web resources and services.